Startseite
Über Mich
AHP4
Galerie
Sehschlangen
Tourenbuch
Bookmarks
Elektronik
Bewertung
Geschichten
[Tagesmessung] [Jahreswerte] [Information]

Messwerte vom 17.05.2022

Die letzten Messwerte von 23:58:45 Uhr:
KategorieMesswert
Temperatur [°C]13
Luftdruck [mBar]1006
Sonneneinstrahlung0
Wind [km/h]1 aus Nord
Niederschlag [l/m²]0
rel.Luftfeucht.95.7%
CO2 [ppm]740

Diagramme
Messwerte vom 17.05.2022
Tagesaggregation
KategorieMinimumMaximumSchnittSumme
Temperatur [°C]133019.0229
Luftdruck [mBar]100110061004.1146
Sonneneinstrahlung247135.9729
Wind [km/h]21
rF [%]3796.680.31
Niederschlag [l/m²]1.03
CO2 [ppm]4271187820.7
Einordnung alsVegetationstag
Sommertag
Heißer Tag

Messungen an benachbarten Tagen: Zur Jahresaggregation 2022
Tabelle aller Messwerte
UhrzeitTemperatur [°C]Luftdruck [mBar]SonneWind [km/h]RichtungRegen [l/m²]rF [%]CO2 [ppm]
00:01:49 16 1002 0 0 SO 0 95.6 964
00:04:48 16 1001 0 0 NW 0 95.7 956
00:07:48 16 1002 0 0 SO 0 95.6 953
00:10:49 16 1002 0 0 SO 0 95.6 947
00:13:48 16 1002 0 0 SO 0 95.5 943
00:16:47 16 1002 0 0 S 0 95.5 955
00:19:50 16 1002 0 0 SW 0 95.6 947
00:22:46 16 1002 0 0 S 0 95.6 951
00:25:46 16 1002 0 0 S 0 95.6 945
00:28:47 16 1002 0 0 S 0 95.8 950
00:31:49 16 1002 0 0 S 0 96.1 943
00:34:46 16 1002 0 0 S 0 96 941
00:37:50 16 1002 0 1 NO 0 96 947
00:40:46 16 1002 0 0 S 0 96.1 949
00:43:48 16 1002 0 2 SO 0 96.3 965
00:46:48 16 1002 0 0 SO 0 96.2 967
00:49:48 16 1002 0 0 SO 0 96.3 974
00:52:47 16 1002 0 0 W 0 96.3 980
00:55:47 16 1002 0 1 W 0 96.3 972
00:58:48 17 1002 0 2 S 0 96.6 966
01:01:48 17 1002 0 1 NW 0 96.6 970
01:04:48 17 1002 0 4 W 0 96.5 978
01:07:49 17 1002 0 2 SO 0 96.4 978
01:10:48 17 1002 0 3 NW 0 96.1 986
01:13:50 17 1002 0 4 W 0 95.1 967
01:16:47 16 1002 0 2 W 0 95 973
01:19:48 16 1002 0 3 W 0 94.8 974
01:22:46 16 1002 0 1 NW 0 94.7 984
01:25:48 16 1002 0 3 NW 0 94.7 976
01:28:46 16 1002 0 1 SW 0 94.9 970
01:31:46 16 1002 0 2 W 0 94.8 981
01:34:47 16 1002 0 1 N 0 94.8 989
01:37:48 16 1002 0 4 NW 0 94.8 1002
01:40:48 16 1002 0 1 W 0 95 1005
01:43:48 16 1002 0 1 W 0 95 1010
01:46:49 16 1002 0 1 SO 0 95 1016
01:49:48 16 1002 0 0 W 0 95.4 1004
01:52:48 16 1002 0 0 NW 0 95.4 995
01:55:46 16 1002 0 1 O 0 95.4 1001
01:58:47 16 1002 0 2 W 0 95.4 1008
02:01:48 16 1003 0 0 NW 0 95.4 1009
02:04:49 16 1002 0 1 NW 0 95.6 1016
02:07:48 16 1003 0 0 S 0 95.9 1007
02:10:48 16 1002 0 0 SO 0 96.1 1015
02:13:45 16 1002 0 0 S 0.2575 96.1 1006
02:16:47 16 1002 0 0 S 0 96.1 1014
02:19:47 16 1002 0 1 S 0 96.2 1019
02:22:46 16 1002 0 0 S 0 96.6 1037
02:25:48 15 1002 0 1 SO 0.2575 96.6 1045
02:28:48 15 1002 0 0 SW 0 96.6 1051
02:31:49 15 1002 0 0 NW 0 96.6 1054
02:34:48 15 1002 0 0 NW 0 96.6 1055
02:37:47 15 1002 0 0 S 0 96.6 1045
02:40:48 15 1002 0 0 SO 0 96.6 1038
02:43:47 15 1002 0 0 O 0 96.6 1048
02:46:47 15 1002 0 2 SW 0.2575 96.6 1050
02:49:50 15 1002 0 0 NW 0 96.6 1049
02:52:50 15 1002 0 0 NW 0.2575 96.6 1053
02:55:48 15 1002 0 0 NW 0 96.6 1058
02:58:49 15 1003 0 0 NW 0 96.6 1061
03:01:49 15 1002 0 1 SW 0 96.6 1063
03:04:48 15 1002 0 0 SO 0 96.6 1063
03:07:49 15 1002 0 0 SO 0 96.6 1062
03:10:49 15 1002 0 0 SO 0 96.6 1080
03:13:47 15 1003 0 0 SO 0 96.6 1083
03:16:48 15 1002 0 0 SO 0 96.6 1081
03:19:48 15 1002 0 0 SO 0 96.6 1088
03:22:48 15 1002 0 0 S 0 96.6 1096
03:25:46 15 1002 0 0 S 0 96.6 1099
03:28:48 15 1002 0 0 S 0 96.6 1078
03:31:47 15 1002 0 0 S 0 96.6 1076
03:34:48 15 1002 0 1 SO 0 96.6 1082
03:37:52 15 1002 0 0 SO 0 96.6 1086
03:40:51 15 1002 0 1 SW 0 96.6 1081
03:43:50 15 1002 0 0 NW 0 96.6 1084
03:46:48 15 1002 0 0 NW 0 96.6 1097
03:49:46 15 1002 0 0 O 0 96.6 1094
03:52:48 15 1002 0 0 W 0 96.6 1091
03:55:47 15 1002 0 0 S 0 96.6 1086
03:58:49 15 1002 0 0 W 0 96.6 1085
04:01:48 15 1002 0 0 NO 0 96.6 1089
04:04:48 15 1002 0 0 SO 0 96.6 1093
04:07:46 15 1002 0 0 W 0 96.6 1076
04:10:48 15 1002 0 0 SO 0 96.6 1065
04:13:48 15 1002 0 0 S 0 96.6 1074
04:16:47 15 1002 0 1 S 0 96.6 1085
04:19:49 15 1002 0 1 S 0 96.6 1092
04:22:50 15 1002 0 0 W 0 96.6 1079
04:25:50 15 1002 0 0 SW 0 96.6 1083
04:28:50 15 1002 0 0 SW 0 96.6 1080
04:31:49 15 1003 0 0 SW 0 96.6 1074
04:34:47 15 1002 0 0 SW 0 96.6 1083
04:37:48 15 1002 0 0 SW 0 96.6 1086
04:40:46 15 1002 0 0 SW 0 96.6 1083
04:43:47 15 1003 0 0 SW 0 96.6 1096
04:46:44 15 1003 0 0 O 0 96.6 1100
04:49:48 14 1003 0 0 NW 0 96.6 1107
04:52:49 14 1002 0 0 NW 0 96.6 1110
04:55:46 14 1002 4 0 NW 0 96.6 1110
04:58:47 14 1003 6 0 NW 0 96.6 1107
05:01:48 14 1003 9 0 NW 0 96.6 1128
05:04:47 14 1003 12 0 NW 0 96.6 1137
05:07:47 14 1002 11 0 NW 0 96.6 1118
05:10:50 14 1003 10 0 NW 0 96.6 1105
05:13:48 14 1003 12 0 NW 0 96.6 1095
05:16:48 14 1002 14 0 NW 0 96.6 1104
05:19:50 14 1003 15 0 NW 0 96.6 1113
05:22:48 14 1003 24 0 NW 0 96.6 1126
05:25:49 14 1002 30 0 NW 0 96.6 1129
05:28:47 14 1003 33 0 NW 0 96.6 1118
05:31:50 14 1002 31 0 NW 0 96.6 1112
05:34:48 14 1003 35 0 NW 0 96.6 1117
05:37:48 14 1003 59 0 NW 0 96.6 1132
05:40:49 14 1003 66 0 NW 0 96.6 1130
05:43:48 14 1003 73 0 NW 0 96.6 1129
05:46:48 14 1003 75 0 NW 0 96.6 1121
05:49:47 14 1003 79 0 NW 0 96.6 1121
05:52:49 14 1003 89 0 NW 0 96.6 1112
05:55:50 14 1003 99 0 NW 0 96.6 1098
05:58:48 14 1002 90 0 NW 0 96.6 1094
06:01:49 15 1003 81 0 NW 0 96.6 1110
06:04:50 15 1003 92 0 NW 0 96.6 1122
06:07:49 15 1003 117 0 S 0 96.6 1119
06:10:50 15 1004 110 0 S 0 96.6 1129
06:13:48 15 1003 113 0 S 0 96.6 1127
06:16:50 15 1003 121 0 SO 0 96.6 1128
06:19:50 15 1003 127 0 SO 0 96.6 1132
06:22:50 15 1003 128 0 SO 0 96.6 1143
06:25:50 15 1003 125 0 SW 0 96.6 1136
06:28:48 15 1003 121 0 SW 0 96.6 1137
06:31:51 15 1003 125 0 SW 0 96.6 1138
06:34:49 15 1004 137 0 SW 0 96.6 1154
06:37:50 15 1003 159 0 SW 0 96.6 1169
06:40:49 15 1003 171 0 S 0 96.6 1167
06:43:49 15 1004 173 0 W 0 96.6 1145
06:46:48 15 1004 178 0 W 0 96.6 1140
06:49:49 15 1003 181 0 W 0 96.6 1137
06:52:47 15 1004 187 0 W 0 96.6 1145
06:55:47 15 1003 189 0 W 0 96.6 1153
06:58:50 16 1004 200 0 W 0 96.6 1156
07:01:46 16 1004 203 0 W 0 96.6 1153
07:04:46 16 1003 196 0 W 0 96.6 1143
07:07:48 16 1003 199 0 W 0 96.6 1160
07:10:49 16 1004 186 0 W 0 96.6 1150
07:13:48 16 1004 183 0 NO 0 96.6 1153
07:16:48 16 1004 174 0 W 0 96.6 1158
07:19:48 16 1004 163 0 W 0 96.6 1163
07:22:48 16 1003 157 0 SO 0 96.6 1177
07:25:48 16 1004 180 0 W 0 96.6 1186
07:28:48 16 1004 181 0 W 0 96.6 1187
07:31:49 16 1004 173 0 SO 0 96.6 1178
07:34:49 16 1003 171 0 NW 0 96.6 1161
07:37:48 16 1004 171 0 W 0 96.6 1167
07:40:49 16 1004 147 1 W 0 96.6 1154
07:43:49 16 1003 189 0 SO 0 96.6 846
07:46:49 16 1004 187 1 W 0 96.6 790
07:49:49 16 1003 189 1 W 0 96.6 876
07:52:48 16 1003 187 0 NW 0 96.6 888
07:55:48 16 1004 192 1 SW 0 96.6 894
07:58:50 16 1004 195 1 SW 0 96.6 896
08:01:48 16 1004 193 0 N 0 96.6 906
08:04:47 16 1004 191 0 W 0 96.6 917
08:07:48 16 1004 186 3 S 0 96.6 912
08:10:48 16 1004 187 0 NW 0 96.6 920
08:13:50 17 1005 186 1 SO 0 96.6 901
08:16:49 16 1003 192 1 S 0 96.6 902
08:19:51 17 1004 199 0 SO 0 96.6 893
08:22:49 17 1005 208 1 SO 0 96.6 887
08:25:49 17 1004 209 0 W 0 96.6 882
08:28:48 17 1004 210 0 S 0 96.5 884
08:31:51 17 1004 215 0 S 0 96.3 879
08:34:47 17 1004 219 1 W 0 96.3 881
08:37:50 18 1004 220 0 NW 0 95.9 878
08:40:49 18 1004 213 1 NW 0 95.6 881
08:43:48 18 1004 208 0 S 0 94.9 887
08:46:48 18 1004 208 2 W 0 93 885
08:49:50 19 1004 210 2 O 0 92.3 880
08:52:49 19 1005 216 1 SW 0 91.3 881
08:55:48 19 1004 201 1 SW 0 91.2 881
08:58:48 19 1004 212 0 S 0 90.6 878
09:01:51 19 1004 213 0 SO 0 90.2 882
09:04:51 19 1005 210 0 SW 0 89.9 878
09:07:52 19 1005 212 1 NW 0 90 870
09:10:49 19 1005 220 3 W 0 89.9 869
09:13:50 19 1004 223 2 NW 0 89.3 866
09:16:49 19 1005 222 0 SO 0 89.7 866
09:19:49 20 1005 218 2 W 0 89.7 869
09:22:51 20 1004 218 2 SW 0 88.9 867
09:25:49 20 1004 220 1 NW 0 87.5 863
09:28:47 20 1004 224 3 S 0 86.6 854
09:31:49 20 1004 214 0 W 0 84.7 858
09:34:47 20 1005 214 3 S 0 84.4 856
09:37:49 20 1005 218 4 SO 0 84.3 853
09:40:51 20 1005 212 2 SW 0 84 859
09:43:50 20 1005 207 1 SW 0 84.2 861
09:46:49 20 1005 216 0 S 0 82.8 860
09:49:49 20 1006 222 1 S 0 83.4 864
09:52:47 20 1005 226 3 0 84.8 864
09:55:48 21 1005 220 1 S 0 84.3 861
09:58:50 21 1005 219 1 SW 0 83.5 861
10:01:49 21 1004 217 2 SO 0 82.8 858
10:04:48 21 1005 213 1 W 0 82 852
10:07:50 21 1005 215 2 S 0 82 855
10:10:49 21 1005 219 0 S 0 83.9 846
10:13:48 20 1005 217 4 SW 0 83.9 848
10:16:49 20 1005 211 0 NO 0 83.7 849
10:19:50 20 1004 206 3 NW 0 83.3 854
10:22:49 20 1005 212 3 W 0 83.3 849
10:25:49 20 1005 208 6 SW 0 83.7 858
10:28:50 20 1004 211 0 NW 0 84.8 855
10:31:49 20 1005 218 2 W 0 84.1 848
10:34:48 20 1005 214 1 W 0 83.7 855
10:37:51 20 1004 203 8 NW 0 79.8 852
10:40:33 19 1005 209 4 NW 0 72.8 841
10:43:48 20 1005 210 4 W 0 84.1 842
10:46:50 19 1004 211 2 NW 0 82.3 837
10:49:31 19 1005 214 3 S 0 65.8 834
10:52:46 20 1004 219 1 S 0 86.5 827
10:55:47 20 1005 215 3 O 0 87 831
10:58:48 21 1004 221 0 S 0 84.1 840
11:01:48 21 1004 221 2 NW 0 83.2 848
11:04:48 21 1005 219 1 W 0 83.6 845
11:07:48 21 1005 220 4 SO 0 82 857
11:10:48 21 1004 217 7 W 0 79.2 848
11:13:48 21 1005 215 5 NW 0 75.1 837
11:16:48 21 1004 215 0 NO 0 74.3 828
11:19:52 21 1005 212 2 NW 0 78.3 824
11:22:46 21 1004 218 3 W 0 78.9 813
11:25:48 22 1005 218 4 NW 0 78.8 805
11:28:48 22 1005 217 1 W 0 78.5 810
11:31:51 22 1005 220 0 NW 0 78 817
11:34:50 22 1005 221 8 SO 0 77.6 823
11:37:50 23 1004 219 3 NW 0 77.2 828
11:40:50 23 1005 225 1 W 0 73.9 828
11:43:48 23 1005 214 3 NW 0 74.3 820
11:46:49 23 1004 215 2 W 0 75.9 816
11:49:47 23 1004 213 3 W 0 75.3 808
11:52:50 23 1005 216 5 NW 0 73.5 803
11:55:46 23 1005 224 6 N 0 66.4 808
11:58:30 22 1005 223 3 S 0 59.4 806
12:01:49 23 1005 229 5 SW 0 67.2 800
12:04:48 24 1004 229 1 N 0 66.5 794
12:07:48 25 1005 218 5 W 0 66.7 801
12:10:48 25 1005 209 1 O 0 63.6 797
12:13:49 25 1005 210 5 SW 0 62.7 800
12:16:47 23 1005 212 4 W 0 65.1 787
12:19:48 23 1005 211 0 W 0 66.3 789
12:22:50 23 1005 215 1 SW 0 68.1 790
12:25:49 23 1005 217 1 O 0 68.7 795
12:28:50 24 1005 217 0 NW 0 69.5 791
12:31:49 25 1005 218 2 SW 0 65 791
12:34:50 26 1005 218 2 W 0 62.8 800
12:37:50 26 1004 220 6 W 0 59.7 794
12:40:50 26 1004 222 2 NW 0 58.8 794
12:43:49 27 1004 223 2 SO 0 57.2 788
12:46:46 27 1005 225 2 W 0 56.1 793
12:49:48 27 1005 229 1 NW 0 54.6 794
12:52:49 26 1004 226 8 NO 0 54.1 793
12:55:48 25 1004 224 8 SO 0 55.2 783
12:58:48 25 1004 225 4 N 0 56.9 774
13:01:49 25 1005 224 1 SO 0 59.1 773
13:04:49 25 1005 227 4 SW 0 59.2 771
13:07:49 26 1005 225 2 NW 0 59.2 772
13:10:48 26 1004 216 4 NO 0 57.3 780
13:13:48 26 1005 210 2 NW 0 57.7 785
13:16:46 25 1005 206 0 W 0 57.9 779
13:19:49 24 1004 219 1 S 0 58.4 773
13:22:51 24 1005 223 2 SW 0 59.5 771
13:25:46 24 1004 226 4 N 0 61.4 773
13:28:47 25 1004 225 0 W 0 61.7 771
13:31:47 26 1005 227 5 S 0 57.7 768
13:34:48 27 1004 227 1 O 0 54.5 764
13:37:47 27 1005 231 4 W 0 54.4 759
13:40:49 28 1004 231 4 SW 0 53 761
13:43:48 28 1004 234 6 S 0 51.5 761
13:46:46 28 1004 231 5 S 0 50.4 757
13:49:50 27 1004 230 4 SO 0 50.5 758
13:52:48 27 1004 231 2 NO 0 51.2 755
13:55:50 27 1004 232 3 NW 0 50.9 753
13:58:50 27 1005 233 7 SO 0 50.9 749
14:01:47 27 1004 231 6 W 0 50.2 750
14:04:50 28 1004 236 1 SW 0 49.6 749
14:07:48 27 1004 234 4 NW 0 47.2 749
14:10:48 27 1005 235 6 W 0 47.1 741
14:13:48 27 1004 238 3 S 0 48.5 738
14:16:48 28 1004 229 4 SO 0 48.6 742
14:19:48 28 1004 239 6 SO 0 46.5 742
14:22:48 28 1005 239 3 SO 0 45.4 740
14:25:48 28 1003 240 1 W 0 45.2 735
14:28:49 29 1004 241 2 SO 0 45.2 743
14:31:48 28 1004 242 12 SW 0 44.1 741
14:34:51 27 1005 241 12 NW 0 42.3 744
14:37:49 26 1004 237 3 NW 0 44.6 731
14:40:48 26 1004 242 2 NW 0 45.8 720
14:43:50 27 1004 243 4 NW 0 47.3 715
14:46:48 28 1004 242 5 W 0 44.4 717
14:49:48 28 1004 243 0 W 0 44.4 709
14:52:45 28 1004 243 4 W 0 45.1 711
14:55:47 29 1005 244 2 W 0 42.8 714
14:58:49 29 1004 244 1 SW 0 42 709
15:01:47 30 1004 244 1 NW 0 42.2 717
15:04:30 28 1004 245 4 O 0 40 712
15:07:47 28 1004 245 5 S 0 37 715
15:10:49 26 1003 244 9 NW 0 39.7 697
15:13:49 26 1004 245 13 NW 0 40.1 677
15:16:48 26 1004 244 21 N 0 41.9 668
15:19:47 25 1004 245 11 N 0 48.9 656
15:22:47 25 1004 238 8 N 0 54.6 659
15:25:48 23 1004 234 15 NO 0 59.6 659
15:28:48 23 1004 245 10 O 0 63.1 656
15:31:51 22 1005 246 15 S 0 65.1 652
15:34:46 23 1005 245 9 N 0 65.5 653
15:37:49 23 1004 244 9 NO 0 64.9 679
15:40:50 22 1005 245 13 NW 0 64.4 680
15:43:48 22 1005 245 8 NW 0 65.8 683
15:46:51 22 1005 231 11 NW 0 67.4 682
15:49:50 22 1005 235 8 N 0 67.8 679
15:52:48 22 1004 233 13 N 0 68.1 679
15:55:51 22 1004 246 6 SO 0 68.4 682
15:58:48 22 1004 246 8 O 0 68.6 680
16:01:49 22 1004 246 9 NW 0 68.4 673
16:04:49 23 1005 244 7 N 0 67.1 676
16:07:50 23 1005 246 2 O 0 66.1 673
16:10:50 23 1005 246 12 NO 0 65.9 656
16:13:48 23 1005 246 6 O 0 65.7 651
16:16:48 23 1004 247 7 N 0 65.3 652
16:19:48 23 1004 247 6 SO 0 65.3 645
16:22:47 23 1005 247 8 N 0 65.1 648
16:25:50 23 1006 245 10 NO 0 64.8 641
16:28:47 23 1005 247 6 O 0 64.1 642
16:31:47 23 1005 247 14 0 62.4 630
16:34:47 24 1005 247 12 0 62.1 630
16:37:49 24 1004 247 10 N 0 61.2 632
16:40:50 24 1005 247 10 NO 0 60.1 623
16:43:51 24 1005 247 9 NW 0 59.8 620
16:46:48 24 1005 247 4 SO 0 60.3 624
16:49:46 24 1005 247 3 SO 0 59.4 617
16:52:46 24 1005 246 4 O 0 59.3 612
16:55:50 25 1005 247 11 N 0 59.4 615
16:58:49 25 1005 246 10 NO 0 57.7 612
17:01:48 24 1006 246 5 N 0 58.6 608
17:04:46 24 1005 246 1 N 0 59 612
17:07:46 25 1005 246 4 N 0 59.1 615
17:10:49 24 1005 235 8 NO 0 58.3 597
17:13:48 23 1004 246 9 N 0 61.4 602
17:16:49 23 1005 246 6 NO 0 62 600
17:19:50 24 1005 247 11 NO 0 60.1 597
17:22:48 24 1005 246 14 N 0 59.8 588
17:25:49 24 1005 246 7 NO 0 59.8 581
17:28:51 24 1005 246 4 NO 0 60.1 568
17:31:48 25 1005 226 4 O 0 59.7 568
17:34:48 25 1004 246 7 S 0 58.3 567
17:37:48 25 1005 245 3 NO 0 57.8 566
17:40:46 25 1005 246 6 O 0 57.3 562
17:43:46 26 1005 246 6 N 0 57.3 547
17:46:49 26 1005 246 4 NO 0 55.9 538
17:49:46 25 1005 246 7 N 0 54.4 536
17:52:46 25 1005 246 9 N 0 55.7 544
17:55:48 24 1005 246 5 SW 0 57.5 548
17:58:48 25 1004 246 4 NW 0 57.7 548
18:01:49 25 1005 246 4 NO 0 57.7 547
18:04:50 25 1005 224 7 N 0 57 536
18:07:49 24 1005 246 2 SO 0 57.2 503
18:10:48 25 1004 217 2 N 0 58.6 453
18:13:48 25 1006 217 4 O 0 55.4 440
18:16:48 24 1005 217 4 NO 0 57.1 436
18:19:49 23 1005 211 4 W 0 61.1 430
18:22:47 23 1005 207 4 NO 0 61.6 427
18:25:49 24 1005 205 2 NO 0 61 434
18:28:48 24 1004 243 5 NO 0 58.8 433
18:31:49 24 1005 241 2 NO 0 57.1 427
18:34:48 24 1005 241 3 NO 0 56.8 430
18:37:48 25 1005 243 1 NO 0 57.3 431
18:40:46 25 1005 243 6 0 56.9 430
18:43:48 24 1005 245 1 O 0 58.9 436
18:46:50 23 1006 233 1 SW 0 60.9 442
18:49:49 22 1004 226 3 NO 0 62.6 439
18:52:48 22 1005 226 6 NO 0 64.4 442
18:55:48 21 1005 220 0 NO 0 65.1 442
18:58:48 21 1005 220 2 SO 0 65.9 451
19:01:47 21 1005 220 0 W 0 67.1 448
19:04:49 20 1005 222 1 NO 0 68.3 451
19:07:47 20 1005 221 0 O 0 68.8 460
19:10:49 20 1005 221 0 N 0 68.8 465
19:13:49 20 1005 221 1 SO 0 69.1 462
19:16:47 20 1005 219 1 NO 0 69.4 460
19:19:47 20 1005 218 4 NO 0 70 459
19:22:48 20 1005 216 0 SO 0 70.2 467
19:25:46 20 1005 215 0 O 0 70.6 477
19:28:47 20 1005 213 1 O 0 69.7 486
19:31:51 20 1005 212 2 NO 0 69.8 494
19:34:47 20 1005 211 4 N 0 70.1 501
19:37:49 20 1004 210 3 N 0 70.7 518
19:40:46 20 1006 210 4 0 71 541
19:43:49 20 1005 208 6 N 0 71 551
19:46:46 19 1005 209 3 N 0 71.7 556
19:49:47 19 1005 206 0 O 0 72 556
19:52:48 19 1005 204 2 NO 0 72.6 553
19:55:48 19 1005 204 3 NO 0 73.1 550
19:58:46 19 1005 205 1 O 0 73.2 553
20:01:49 19 1006 203 0 SO 0 73.1 553
20:04:48 19 1005 199 0 NO 0 72.9 559
20:07:48 19 1005 195 1 NO 0 72.8 565
20:10:48 19 1005 191 0 NO 0 73.1 574
20:13:47 19 1005 189 0 N 0 73.8 562
20:16:50 19 1005 188 0 NO 0 74.2 568
20:19:49 18 1006 184 0 O 0 74.3 572
20:22:46 18 1005 180 2 O 0 74.4 574
20:25:48 18 1005 176 0 NO 0 74.6 577
20:28:48 18 1006 172 1 O 0 75 583
20:31:50 18 1005 167 0 NO 0 75.2 588
20:34:48 18 1006 162 0 NO 0 75.3 591
20:37:50 18 1006 151 0 NO 0 75.5 586
20:40:48 18 1006 142 0 NO 0 75.9 591
20:43:50 17 1006 132 0 NO 0 76.6 589
20:46:51 17 1005 125 0 NO 0 77.5 593
20:49:48 17 1005 117 0 NO 0 78.3 590
20:52:48 17 1005 110 0 NO 0 78.7 598
20:55:49 17 1006 103 0 NO 0 78.9 603
20:58:47 17 1005 95 0 NO 0 79.1 612
21:01:49 16 1006 87 0 NO 0 79.3 614
21:04:48 16 1006 78 0 NO 0 79.9 612
21:07:48 16 1006 69 0 NO 0 81.1 615
21:10:48 16 1005 59 0 NO 0 81.7 617
21:13:48 16 1006 27 0 NO 0 82.1 620
21:16:47 16 1006 43 0 NO 0 82.6 604
21:19:48 16 1006 35 0 NO 0 83.5 586
21:22:52 16 1006 27 0 NO 0 84.8 583
21:25:49 16 1006 21 0 NO 0 84.8 605
21:28:48 16 1006 16 0 NO 0 84.7 621
21:31:47 15 1006 12 0 NO 0 85.1 645
21:34:47 15 1005 9 0 NO 0 85.5 651
21:37:49 15 1006 7 0 SO 0 85.3 655
21:40:49 15 1006 5 0 SO 0 85.3 649
21:43:48 15 1006 4 0 SO 0 85.7 654
21:46:46 15 1006 4 0 SO 0 86.2 652
21:49:47 15 1006 3 0 N 0 87 664
21:52:47 15 1006 3 0 N 0 87.5 668
21:55:47 15 1006 0 0 N 0 88.1 673
21:58:45 15 1006 0 0 N 0 87.7 667
22:01:49 15 1006 0 0 N 0 88.4 679
22:04:48 15 1006 0 0 N 0 89.2 689
22:07:49 15 1006 0 0 N 0 89.2 682
22:10:47 15 1006 0 0 N 0 89.3 685
22:13:48 15 1006 0 0 NO 0 89.9 689
22:16:47 15 1006 0 1 NO 0 90.4 697
22:19:48 14 1006 0 0 NO 0 90.9 705
22:22:48 14 1006 0 0 NO 0 90.6 710
22:25:46 14 1006 0 0 NO 0 90.4 707
22:28:50 14 1006 0 0 NO 0 90.2 715
22:31:49 14 1006 0 0 NO 0 90.6 713
22:34:49 14 1006 0 0 NO 0 91.2 724
22:37:50 14 1006 0 0 NO 0 91.7 733
22:40:47 14 1006 0 1 NO 0 91.8 733
22:43:48 14 1006 0 0 NO 0 91.9 739
22:46:46 14 1006 0 0 NO 0 91.9 738
22:49:49 13 1006 0 0 NO 0 91.8 739
22:52:46 13 1006 0 0 NO 0 91.6 739
22:55:48 13 1006 0 0 NO 0 91.6 737
22:58:47 13 1006 0 0 NO 0 91.9 739
23:01:47 13 1006 0 0 NO 0 92.4 733
23:04:46 13 1006 0 0 NO 0 92.7 732
23:07:46 13 1006 0 0 NO 0 93 725
23:10:48 13 1006 0 0 NO 0 93 727
23:13:48 13 1006 0 0 NO 0 92.9 737
23:16:47 13 1006 0 0 NO 0 93.2 738
23:19:49 13 1006 0 0 NO 0 93.6 731
23:22:50 13 1006 0 0 NO 0 93.8 728
23:25:47 13 1006 0 0 NO 0 93.9 732
23:28:47 13 1006 0 0 NO 0 94.1 723
23:31:47 13 1006 0 0 NO 0 94.3 717
23:34:49 13 1006 0 0 NO 0 94.5 711
23:37:48 13 1006 0 1 NO 0 94.6 714
23:40:46 13 1006 0 0 N 0 95 723
23:43:48 13 1006 0 0 NO 0 95.5 729
23:46:46 13 1006 0 0 NO 0 95.5 732
23:49:47 13 1006 0 0 NO 0 95.5 729
23:52:46 13 1006 0 0 NO 0 95.2 731
23:55:50 13 1006 0 0 NO 0 95 732
23:58:45 13 1006 0 1 N 0 95.7 740

Letzte Änderung : 22-Jul-2022
Copyright Jens Köhler, Wolfsburg, Obere Dorfstraße 10d